FW2916 Weather Reports


Display with metric or nautical units.
time (UTC)temp
F
wind
direction
speed
MPH
gust
MPH
rain 1hr
in
rain 24hr
in
rain mn
in
humidity
%
barometer
mb
20260905153127 94 0 0.0 1.0 0.00 0.00 0.00 58 1015.4
20260905151548 93 0 0.0 2.0 0.00 0.00 0.00 61 1015.3
20260905150042 92 0 1.0 3.0 0.00 0.00 0.00 61 1015.3
20260905144552 91 0 0.0 1.0 0.00 0.00 0.00 64 1015.2
20260905143052 89 0 0.0 2.0 0.00 0.00 0.00 67 1015.2
20260905141547 87 258 0.0 2.0 0.00 0.00 0.00 71 1015.1
20260905140041 86 0 0.0 0.0 0.00 0.00 0.00 72 1015.2
20260905134553 83 0 0.0 0.0 0.00 0.00 0.00 74 1015.0
20260905133051 79 0 0.0 0.0 0.00 0.00 0.00 81 1014.9
20260905131547 76 0 0.0 0.0 0.00 0.00 0.00 88 1014.6
20260905130042 74 0 0.0 0.0 0.00 0.00 0.00 91 1014.6
20260905124559 73 0 0.0 0.0 0.00 0.00 0.00 93 1014.4
20260905123050 72 0 0.0 0.0 0.00 0.00 0.00 93 1014.4
20260905121543 71 0 0.0 0.0 0.00 0.00 0.00 92 1014.2
20260905120052 71 0 0.0 0.0 0.00 0.00 0.00 91 1014.1
20260905114547 72 0 0.0 0.0 0.00 0.00 0.00 90 1014.0
20260905113101 73 0 0.0 0.0 0.00 0.00 0.00 89 1013.9
20260905111542 73 0 0.0 0.0 0.00 0.00 0.00 90 1013.8
20260905110040 72 0 0.0 0.0 0.00 0.00 0.00 92 1013.8
20260905104548 71 0 0.0 0.0 0.00 0.00 0.00 96 1013.5
20260905103048 71 0 0.0 0.0 0.00 0.00 0.00 95 1013.4
20260905101542 71 0 0.0 0.0 0.00 0.00 0.00 95 1013.6
20260905100100 71 0 0.0 0.0 0.00 0.00 0.00 95 1013.4
20260905094543 71 0 0.0 0.0 0.00 0.00 0.00 95 1013.5
20260905093053 71 0 0.0 0.0 0.00 0.00 0.00 94 1013.5
20260905091542 71 0 0.0 0.0 0.00 0.00 0.00 94 1013.5
20260905090051 72 0 0.0 0.0 0.00 0.00 0.00 93 1013.4
20260905084551 72 0 0.0 0.0 0.00 0.00 0.00 93 1013.4
20260905083046 72 0 0.0 0.0 0.00 0.00 0.00 93 1013.5
20260905081544 72 0 0.0 0.0 0.00 0.00 0.00 93 1013.4
20260905080046 73 0 0.0 0.0 0.00 0.00 0.00 92 1013.4
20260905074548 73 0 0.0 0.0 0.00 0.00 0.00 92 1013.3
20260905073043 73 0 0.0 0.0 0.00 0.00 0.00 92 1013.4
20260905071542 74 0 0.0 0.0 0.00 0.00 0.00 92 1013.4
20260905070041 74 0 0.0 0.0 0.00 0.00 0.00 92 1013.5
20260905064552 75 0 0.0 0.0 0.00 0.00 0.00 92 1013.5
20260905063042 75 0 0.0 0.0 0.00 0.00 0.00 93 1013.7
20260905061547 75 0 0.0 0.0 0.00 0.00 0.00 93 1013.6
20260905060058 75 0 0.0 0.0 0.00 0.00 0.00 91 1013.8
20260905054554 75 0 0.0 0.0 0.00 0.00 0.00 90 1013.6
20260905053041 75 0 0.0 0.0 0.00 0.00 0.00 89 1013.7
20260905051542 75 0 0.0 0.0 0.00 0.00 0.00 89 1013.7
20260905050054 75 0 0.0 0.0 0.00 0.00 0.00 89 1013.5
20260905044552 76 0 0.0 0.0 0.00 0.00 0.00 89 1013.5
20260905043055 76 0 0.0 0.0 0.00 0.00 0.00 88 1013.4
20260905041542 77 0 0.0 0.0 0.00 0.00 0.00 86 1013.5
20260905040058 77 0 0.0 0.0 0.00 0.00 0.00 86 1013.5
20260905034546 78 0 0.0 0.0 0.00 0.00 0.00 83 1013.6
20260905033045 78 0 0.0 0.0 0.00 0.00 0.00 83 1013.6
20260905031549 79 0 0.0 0.0 0.00 0.00 0.00 80 1013.5
20260905024547 80 0 0.0 0.0 0.00 0.00 0.00 78 1013.3
20260905023047 81 0 0.0 0.0 0.00 0.00 0.00 76 1013.1
20260905021542 82 0 0.0 0.0 0.00 0.00 0.00 74 1012.9
20260905020106 82 0 0.0 0.0 0.00 0.00 0.00 74 1012.6
20260905014547 83 0 0.0 0.0 0.00 0.00 0.00 72 1012.5
20260905013050 84 0 0.0 0.0 0.00 0.00 0.00 70 1012.4
20260905011622 85 0 0.0 0.0 0.00 0.00 0.00 68 1012.2
20260905010043 87 0 0.0 0.0 0.00 0.00 0.00 65 1012.2
20260905004550 90 0 0.0 0.0 0.00 0.00 0.00 62 1012.1
20260905003047 91 0 0.0 0.0 0.00 0.00 0.00 59 1012.1
20260905001551 92 155 0.0 1.0 0.00 0.00 0.00 57 1012.2
20260905000052 94 0 0.0 1.0 0.00 0.00 0.00 55 1012.3
20260904234550 95 153 1.0 2.0 0.00 0.00 0.00 53 1012.3
20260904233046 97 103 1.0 4.0 0.00 0.00 0.00 50 1012.3
20260904231543 98 210 0.0 6.0 0.00 0.00 0.00 49 1012.4
20260904230054 98 203 1.0 4.0 0.00 0.00 0.00 49 1012.5
20260904224544 99 186 1.0 8.0 0.00 0.00 0.00 49 1012.4
20260904223047 99 124 1.0 6.0 0.00 0.00 0.00 47 1012.4
20260904221542 99 218 1.0 5.0 0.00 0.00 0.00 48 1012.5
20260904220052 99 81 1.0 5.0 0.00 0.00 0.00 47 1012.5
20260904214551 100 119 2.0 5.0 0.00 0.00 0.00 47 1012.7
20260904213047 99 226 2.0 5.0 0.00 0.00 0.00 48 1012.8
20260904211542 100 224 1.0 4.0 0.00 0.00 0.00 48 1012.8
20260904210045 99 155 1.0 6.0 0.00 0.00 0.00 50 1012.9
20260904204552 99 250 1.0 7.0 0.00 0.00 0.00 51 1013.1
20260904203043 99 165 0.0 9.0 0.00 0.00 0.00 52 1013.2
20260904201543 98 92 3.0 6.0 0.00 0.00 0.00 51 1013.3
20260904200052 98 216 1.0 6.0 0.00 0.00 0.00 53 1013.4
20260904194606 98 147 1.0 7.0 0.00 0.02 0.00 53 1013.5
20260904193043 98 193 3.0 13.0 0.00 0.02 0.00 53 1013.6
20260904191543 97 284 2.0 8.0 0.00 0.02 0.00 53 1013.7
20260904190055 97 229 1.0 7.0 0.00 0.02 0.00 54 1013.8
20260904184549 97 299 2.0 8.0 0.00 0.02 0.00 54 1013.9
20260904183106 96 0 3.0 11.0 0.00 0.02 0.00 55 1014.0
20260904181559 96 180 1.0 8.0 0.00 0.02 0.00 55 1014.2
20260904180053 95 90 1.0 8.0 0.00 0.02 0.00 57 1014.2
20260904174554 95 234 2.0 6.0 0.00 0.02 0.00 56 1014.4
20260904173049 94 221 0.0 7.0 0.00 0.02 0.00 58 1014.6
20260904171542 94 253 2.0 6.0 0.00 0.02 0.00 58 1014.7
20260904170055 93 160 2.0 7.0 0.00 0.02 0.00 61 1014.9
20260904164549 92 264 0.0 11.0 0.00 0.02 0.00 63 1015.0
20260904163046 91 281 1.0 8.0 0.00 0.02 0.00 64 1015.1
20260904161544 90 235 2.0 9.0 0.00 0.02 0.00 65 1015.1
20260904160051 90 177 3.0 10.0 0.00 0.02 0.00 66 1015.2
20260904154554 90 42 0.0 5.0 0.00 0.02 0.00 67 1015.2